Location: Makanda
(37.6176°N, 89.2090°W)
Time: 03:16:14
(UTC+00:00)

USA 215 - Pass Details

Date: 23 September 2019
Orbit: 1102 x 1106 km, 123.0° (Epoch: 14 September)

Event Time Altitude Azimuth Distance (km) Brightness Sun altitude
Rises 11:14:59 0° 42° (NE) 3,924 7.0 -6.8°
Reaches altitude 10° 11:17:30 10° 39° (NE) 2,964 6.2 -6.3°
Maximum altitude 11:23:55 62° 321° (NW) 1,229 3.4 -5.1°
Drops below altitude 10° 11:30:19 10° 242° (WSW) 2,952 5.0 -3.8°
Sets 11:32:49 0° 239° (WSW) 3,907 5.6 -3.3°
